Location: Stilling
(56.0622°N, 9.9882°E)
Time: 13:18:25
(UTC+00:00)

USA 215 - Pass Details

Date: 13 July 2020
Orbit: 1102 x 1106 km, 123.0° (Epoch: 31 July)

Event Time Altitude Azimuth Distance (km) Brightness Sun altitude
Rises 22:06:34 0° 63° (ENE) 3,927 6.3 -10.5°
Reaches altitude 10° 22:09:17 10° 71° (ENE) 2,967 5.5 -10.6°
Maximum altitude 22:15:18 38° 138° (SE) 1,629 3.7 -10.9°
Drops below altitude 10° 22:21:17 10° 205° (SSW) 2,955 5.1 -11.1°
Sets 22:23:59 0° 213° (SSW) 3,910 5.8 -11.2°
